www.pogodaiklimat.ru

Погода и климат >> Архив погоды >> Австралия >> Новый Южный Уэльс >> Брокен-Хилл


ПОГОДА в Брокен-Хилле

  • Прогноз погоды в Брокен-Хилле
  • Монитор погоды в Брокен-Хилле

АРХИВ ПОГОДЫ в Брокен-Хилле

Время (UTC), дата Ветер
(напр.,м/с)
 
Видим.   Явления Облачность Т
(С)
Тd
(С)
f
(%)
Тe
(С)
Тes
(С)
Комфортность P
(гПа)
Po
(гПа)
Тmin
(С)
Tmax
(С)
R
(мм)
R24
(мм)
S
(см)
07 19.03 Ю 5 н/о н/о +33.5 +4.2 16 +31 +31 жарко 1010.9 978.7
08 19.03 ЮЗ 4 н/о н/о +32.6 +3.5 16 +30 +30 жарко 1011.1 978.9
09 19.03 Ю 4 н/о н/о +31.0 +3.9 18 +29 +29 жарко 1011.4 979.2
10 19.03 ЮВ 3 н/о н/о +28.2 +3.1 20 +26 +26 жарко 1011.8 979.6
11 19.03 В 3 н/о н/о +27.8 +4.2 22 +26 +26 жарко 1012.4 980.2
12 19.03 В 3 н/о н/о +26.4 +3.0 22 +25 +25 комфорт 1012.6 980.4
13 19.03 СВ 4 н/о н/о +26.2 +3.5 23 +25 +25 комфорт 1012.5 980.3 +34.6
14 19.03 СВ 3 н/о н/о +24.8 +3.5 25 +24 +24 комфорт 1012.3 980.1
15 19.03 СВ 3 н/о н/о +23.0 +1.9 25 +22 +22 комфорт 1012.0 979.8
16 19.03 штиль 0 н/о н/о +22.7 +3.8 29 +23 +23 комфорт 1011.9 979.7
17 19.03 штиль 0 н/о н/о +20.8 +2.1 29 +21 +21 комфорт 1011.6 979.4
18 19.03 штиль 0 н/о н/о +22.0 +3.6 30 +22 +22 комфорт 1011.5 979.3
19 19.03 В 3 н/о н/о +22.0 +4.1 31 +22 +22 комфорт 1011.8 979.6
20 19.03 СВ 3 н/о н/о +21.3 +3.5 31 +21 +21 комфорт 1012.1 979.9
21 19.03 СВ 3 н/о н/о +22.5 +4.5 31 +23 +23 комфорт 1012.7 980.5
22 19.03 СВ 4 н/о н/о +26.8 +4.0 23 +26 +26 жарко 1013.5 981.3
23 19.03 СВ 5 н/о н/о +28.6 +3.5 20 +27 +27 жарко 1014.1 981.8
00 20.03 СВ 3 н/о н/о +31.3 +3.4 17 +29 +29 жарко 1014.3 982.0
01 20.03 СВ 4 н/о н/о +32.3 +3.3 16 +30 +30 жарко 1014.0 981.7 +20.4
02 20.03 ЮЗ 2 н/о н/о +34.0 +2.8 14 +31 +31 жарко 1013.1 980.9
03 20.03 З 4 н/о н/о +34.3 +3.0 14 +31 +31 жарко 1012.1 979.9
04 20.03 ЮЗ 4 н/о н/о +35.1 +3.6 14 +32 +32 жарко 1011.3 979.1
05 20.03 ЮЗ 3 н/о н/о +35.2 +2.6 13 +32 +32 жарко 1010.7 978.5
06 20.03 З 4 н/о н/о +35.3 +2.7 13 +32 +32 жарко 1010.2 978.1
07 20.03 ЮЗ 2 н/о н/о +35.5 +2.9 13 +32 +32 жарко 1010.1 978.0
08 20.03 СЗ 3 н/о н/о +34.4 +3.1 14 +31 +31 жарко 1010.1 978.0
09 20.03 З 3 н/о н/о +32.6 +2.6 15 +30 +30 жарко 1010.4 978.3
10 20.03 З 2 н/о н/о +30.5 +2.7 17 +28 +28 жарко 1010.9 978.7
11 20.03 В 2 н/о н/о +30.2 +3.3 18 +28 +28 жарко 1011.6 979.4
12 20.03 СВ 3 н/о н/о +28.1 +3.0 20 +26 +26 жарко 1012.0 979.8
13 20.03 СВ 3 н/о н/о +25.4 +2.2 22 +24 +24 комфорт 1012.1 979.9 +36.6
14 20.03 СВ 3 н/о н/о +25.5 +2.9 23 +24 +24 комфорт 1011.8 979.6
15 20.03 СВ 4 н/о н/о +25.6 +3.6 24 +25 +25 комфорт 1011.7 979.5
16 20.03 СВ 5 н/о н/о +25.5 +3.5 24 +25 +25 комфорт 1011.4 979.2
17 20.03 В 4 н/о н/о +23.1 +3.1 27 +23 +23 комфорт 1011.2 979.0
18 20.03 В 5 н/о н/о +23.3 +3.3 27 +23 +23 комфорт 1011.2 979.0
19 20.03 СВ 5 н/о н/о +22.9 +2.9 27 +23 +23 комфорт 1011.8 979.6
20 20.03 СВ 5 н/о н/о +22.3 +3.4 29 +22 +22 комфорт 1012.1 979.9
21 20.03 СВ 4 н/о н/о +22.1 +3.7 30 +22 +22 комфорт 1012.6 980.4
22 20.03 В 5 н/о н/о +26.0 +3.3 23 +25 +25 комфорт 1013.1 980.9
23 20.03 В 7 н/о н/о +28.8 +2.9 19 +27 +27 жарко 1013.4 981.2
00 21.03 СВ 8 н/о н/о +30.1 +2.4 17 +28 +28 жарко 1013.5 981.3
01 21.03 СВ 6 н/о н/о +33.0 +2.0 14 +30 +30 жарко 1013.3 981.1 +20.6
02 21.03 С 5 н/о н/о +34.1 +1.8 13 +31 +31 жарко 1012.6 980.4
03 21.03 СВ 4 н/о н/о +35.3 +2.7 13 +32 +32 жарко 1011.7 979.5
04 21.03 С 4 н/о 3/0
[]
+34.9 +2.4 13 +32 +32 жарко 1010.7 978.5
05 21.03 ЮВ 2 н/о н/о +35.3 +2.7 13 +32 +32 жарко 1010.0 977.9
06 21.03 З 2 н/о н/о +35.7 +3.0 13 +33 +33 жарко 1009.5 977.4
07 21.03 З 2 н/о н/о +36.1 +3.3 13 +33 +33 жарко 1009.3 977.2
08 21.03 С 3 н/о н/о +35.3 +2.7 13 +32 +32 жарко 1009.4 977.3
09 21.03 СВ 6 н/о н/о +33.9 +2.7 14 +31 +31 жарко 1009.7 977.6
10 21.03 В 2 н/о 6/0
[]
+32.3 +2.4 15 +29 +29 жарко 1010.4 978.3
11 21.03 В 4 н/о н/о +30.5 +2.7 17 +28 +28 жарко 1010.9 978.7
12 21.03 СВ 3 н/о н/о +29.6 +3.6 19 +28 +28 жарко 1011.3 979.1
13 21.03 СВ 4 н/о 3/0
[]
+28.5 +4.1 21 +27 +27 жарко 1011.2 979.0 +37.3
14 21.03 СВ 5 н/о н/о +27.0 +3.5 22 +26 +26 жарко 1011.0 978.8
15 21.03 СВ 4 н/о н/о +25.9 +3.2 23 +25 +25 комфорт 1010.8 978.6
16 21.03 СВ 4 н/о 1/0
[]
+26.8 +3.3 22 +25 +25 комфорт 1010.7 978.5
17 21.03 СВ 5 н/о н/о +25.5 +3.5 24 +25 +25 комфорт 1010.2 978.1
18 21.03 В 5 н/о н/о +23.9 +3.8 27 +23 +23 комфорт 1010.3 978.2
22 21.03 СВ 5 н/о н/о +26.4 +5.4 26 +26 +26 жарко 1011.4 979.2
23 21.03 СВ 7 н/о н/о +29.3 +4.7 21 +28 +28 жарко 1011.3 979.1
01 22.03 СВ 7 н/о н/о +34.8 +3.4 14 +32 +32 жарко 1010.8 978.6 +21.8
02 22.03 С 7 н/о н/о +36.1 +2.2 12 +33 +33 жарко 1009.9 977.8
03 22.03 СЗ 7 н/о н/о +36.8 +1.5 11 +33 +33 жарко 1009.2 977.1
04 22.03 СЗ 6 н/о н/о +37.2 +1.8 11 +34 +34 очень
жарко
1008.1 976.0
05 22.03 СЗ 6 н/о н/о +37.4 +2.0 11 +34 +34 очень
жарко
1007.5 975.4
06 22.03 С 7 н/о н/о +37.1 +1.8 11 +34 +34 очень
жарко
1006.9 974.9
07 22.03 С 6 н/о н/о +37.0 +1.7 11 +34 +34 очень
жарко
1006.9 974.9
08 22.03 С 5 н/о н/о +36.1 +1.0 11 +33 +33 жарко 1007.2 975.2
09 22.03 СЗ 5 н/о н/о +34.1 +1.8 13 +31 +31 жарко 1007.6 975.5
10 22.03 З 4 н/о н/о +31.3 +3.4 17 +29 +29 жарко 1008.2 976.1
11 22.03 СЗ 4 н/о н/о +30.0 +3.1 18 +28 +28 жарко 1008.8 976.7
12 22.03 СЗ 3 н/о н/о +28.8 +3.6 20 +27 +27 жарко 1009.1 977.0
13 22.03 СЗ 2 н/о 1/0
[]
+28.8 +2.1 18 +27 +27 жарко 1008.7 976.6 +38.7
14 22.03 штиль 0 н/о н/о +26.3 +1.6 20 +25 +25 комфорт 1008.6 976.5
15 22.03 З 1 н/о н/о +27.0 +1.4 19 +25 +25 комфорт 1008.7 976.6
16 22.03 ЮЗ 3 н/о 9/0
[]
+26.1 +2.7 22 +25 +25 комфорт 1008.8 976.7
17 22.03 Ю 2 н/о н/о +25.5 +3.5 24 +25 +25 комфорт 1008.5 976.4
18 22.03 ЮЗ 3 н/о н/о +25.1 +5.3 28 +25 +25 комфорт 1008.6 976.5
19 22.03 ЮЗ 2 н/о 6/0
[]
+24.8 +7.9 34 +25 +25 комфорт 1008.4 976.3
20 22.03 ЮЗ 3 н/о н/о +23.4 +7.9 37 +24 +24 комфорт 1009.1 977.0
21 22.03 штиль 0 н/о н/о +24.7 +9.4 38 +25 +25 комфорт 1009.3 977.2
22 22.03 штиль 0 н/о 3/0
[]
+26.0 +9.4 35 +26 +26 жарко 1009.9 977.8
23 22.03 В 3 н/о н/о +28.3 +9.6 31 +28 +28 жарко 1010.5 978.4
00 23.03 ЮВ 2 н/о н/о +31.6 +6.6 21 +30 +30 жарко 1010.5 978.4
01 23.03 Ю 5 н/о н/о +31.3 +7.1 22 +30 +30 жарко 1010.4 978.3 +23.2
02 23.03 ЮЗ 3 н/о н/о +32.5 +8.0 22 +31 +31 жарко 1010.3 978.2
03 23.03 З 7 н/о н/о +34.8 +7.8 19 +33 +33 жарко 1009.7 977.6
04 23.03 ЮЗ 6 н/о н/о +34.7 +7.7 19 +33 +33 жарко 1009.4 977.3
05 23.03 ЮЗ 6 н/о н/о +33.9 +7.8 20 +32 +32 жарко 1009.2 977.1
06 23.03 ЮЗ 7 н/о н/о +33.5 +8.2 21 +32 +32 жарко 1008.9 976.8
07 23.03 Ю 6 н/о н/о +33.0 +8.5 22 +32 +32 жарко 1008.9 976.8
08 23.03 Ю 8 н/о н/о +31.6 +9.2 25 +31 +31 жарко 1009.4 977.3
09 23.03 ЮЗ 7 н/о н/о +30.5 +9.4 27 +30 +30 жарко 1010.8 978.6
10 23.03 ЮЗ 9 н/о 5/0
[]
+29.2 +10.3 31 +29 +29 жарко 1011.4 979.2
11 23.03 ЮЗ 10 н/о н/о +26.8 +10.9 37 +28 +28 жарко 1012.0 979.8
12 23.03 ЮЗ 10 н/о н/о +26.1 +11.5 40 +27 +27 жарко 1012.5 980.3
13 23.03 ЮЗ 8 н/о 5/0
[]
+25.2 +12.4 45 +27 +27 жарко 1012.9 980.7 +35.9
14 23.03 Ю 8 н/о н/о +24.8 +12.4 46 +27 +27 жарко 1012.6 980.4
15 23.03 Ю 7 н/о н/о +24.3 +12.3 47 +26 +26 жарко 1012.7 980.5
16 23.03 Ю 6 н/о 5/0
[]
+23.6 +12.9 51 +26 +26 жарко 1012.6 980.4
17 23.03 Ю 4 н/о н/о +23.1 +13.0 53 +26 +26 жарко 1012.5 980.3
18 23.03 Ю 3 н/о н/о +23.0 +12.9 53 +26 +26 жарко 1012.3 980.1
19 23.03 В 4 н/о 10/0
[]
+23.0 +13.2 54 +26 +26 жарко 1012.4 980.2
20 23.03 СВ 5 н/о н/о +22.9 +13.7 56 +26 +26 жарко 1012.6 980.4
21 23.03 СВ 5 н/о н/о +22.5 +14.1 59 +26 +26 жарко 1012.6 980.4
22 23.03 СВ 6 н/о туман местами 10/0 2000 м
[]
+20.4 +16.8 80 +23 +23 комфорт 1013.1 980.9 1
23 23.03 СВ 4 н/о н/о +19.9 +17.3 85 +23 +23 комфорт 1012.9 980.7
00 24.03 СВ 7 н/о н/о +20.4 +17.8 85 +24 +24 комфорт 1011.6 979.4
01 24.03 С 5 н/о в посл. час дождь {туман} 10/10 1500 м
[]
+20.6 +18.0 85 +24 +24 комфорт 1012.8 980.6 +19.7
02 24.03 СЗ 4 н/о н/о +21.4 +18.6 84 +26 +26 душно 1012.6 980.4
03 24.03 СЗ 7 н/о н/о +21.9 +18.3 80 +27 +27 душно 1011.7 979.5
04 24.03 З 7 н/о туман местами 10/0 2000 м
[]
+21.3 +17.9 81 +25 +25 комфорт 1011.5 979.3 3
05 24.03 З 9 н/о н/о +21.1 +17.5 80 +25 +25 комфорт 1010.4 978.3
06 24.03 З 8 н/о н/о +20.9 +17.3 80 +24 +24 комфорт 1010.0 977.9
07 24.03 СЗ 6 8000 м туман местами 10/0 2000 м
[]
+19.3 +17.6 90 +21 +21 комфорт 1010.0 977.9
08 24.03 СЗ 6 н/о н/о +19.6 +17.6 88 +22 +22 комфорт 1011.4 979.2
09 24.03 С 5 н/о н/о +19.6 +17.6 88 +22 +22 комфорт 1010.9 978.7
10 24.03 СЗ 4 н/о туман местами 10/0 2000 м
[]
+19.5 +17.5 88 +22 +22 комфорт 1010.3 978.2
11 24.03 СЗ 3 н/о н/о +19.4 +17.4 88 +22 +22 комфорт 1010.7 978.5
12 24.03 СЗ 5 н/о н/о +19.5 +17.3 87 +21 +21 комфорт 1009.9 977.8
13 24.03 С 6 н/о {туман} 6/0
[]
+19.8 +17.4 86 +22 +22 комфорт 1008.7 976.6 +26.1
14 24.03 С 5 н/о н/о +20.3 +16.9 81 +23 +23 комфорт 1008.7 976.6
15 24.03 С 4 н/о н/о +20.3 +17.1 82 +24 +24 комфорт 1008.8 976.7
16 24.03 СЗ 4 н/о {туман} 9/0
[]
+20.6 +17.0 80 +24 +24 комфорт 1008.9 976.8 0.4
17 24.03 СЗ 5 н/о н/о +20.6 +17.0 80 +24 +24 комфорт 1009.0 976.9
18 24.03 З 6 н/о н/о +20.2 +17.4 84 +23 +23 комфорт 1009.5 977.4
19 24.03 З 6 н/о 1/0
[]
+19.8 +17.9 89 +22 +22 комфорт 1010.4 978.3
20 24.03 З 5 н/о н/о +19.5 +17.8 90 +22 +22 комфорт 1011.5 979.3
21 24.03 З 5 н/о н/о +19.4 +17.9 91 +21 +21 комфорт 1011.9 979.7
22 24.03 ЮЗ 7 н/о 6/6 600 м
[]
+17.9 +13.4 75 +17 +17 1012.5 980.3
23 24.03 ЮЗ 8 н/о н/о +17.7 +13.2 75 +17 +17 1013.2 981.0
00 25.03 ЮЗ 10 н/о н/о +17.9 +11.7 67 +17 +17 1013.5 981.3
01 25.03 ЮЗ 9 н/о 10/10 600 м
[]
+18.5 +11.3 63 +18 +18 1013.8 981.5 +17.7
02 25.03 ЮЗ 9 н/о н/о +18.6 +10.4 59 +18 +18 1014.1 981.8
03 25.03 ЮЗ 8 н/о н/о +19.8 +9.4 51 +20 +20 1013.4 981.2
04 25.03 З 8 н/о 5/5 1000 м
[]
+21.5 +8.7 44 +23 +23 комфорт 1013.0 980.8
05 25.03 ЮЗ 7 н/о н/о +22.4 +8.5 41 +24 +24 комфорт 1012.7 980.5
06 25.03 ЮЗ 7 н/о н/о +22.4 +6.6 36 +23 +23 комфорт 1012.6 980.4
07 25.03 ЮЗ 6 н/о н/о +21.9 +6.6 37 +23 +23 комфорт 1012.8 980.6
08 25.03 ЮЗ 7 н/о н/о +21.2 +5.9 37 +22 +22 комфорт 1013.5 981.3
09 25.03 ЮЗ 6 н/о н/о +19.7 +7.4 45 +20 +20 1014.5 982.2
10 25.03 ЮЗ 4 н/о н/о +18.4 +8.1 51 +19 +19 1015.8 983.5
11 25.03 Ю 4 н/о н/о +17.4 +8.3 55 +17 +17 1016.7 984.4
12 25.03 Ю 6 н/о н/о +16.7 +7.1 53 +16 +16 1017.4 985.0
13 25.03 Ю 5 н/о н/о +15.7 +7.5 58 +15 +15 1017.8 985.4 +23.1
14 25.03 Ю 4 н/о н/о +14.8 +7.6 62 +14 +14 1018.2 985.8
15 25.03 Ю 4 н/о н/о +13.9 +8.1 68 +12 +12 1018.4 986.0
16 25.03 Ю 6 н/о н/о +13.3 +7.5 68 +11 +11 1018.5 986.1
17 25.03 Ю 4 н/о н/о +12.2 +7.7 74 +10 +10 1018.8 986.4
18 25.03 Ю 4 н/о н/о +11.9 +7.4 74 +10 +10 1019.0 986.6
19 25.03 Ю 3 н/о н/о +11.3 +6.6 73 +10 +10 1019.4 987.0
20 25.03 Ю 4 н/о н/о +11.1 +6.5 73 +9 +9 1020.1 987.6
21 25.03 ЮВ 4 н/о н/о +10.9 +5.9 71 +9 +9 1020.8 988.3
22 25.03 ЮВ 5 н/о н/о +12.6 +5.3 61 +11 +11 1021.7 989.2
23 25.03 ЮВ 7 н/о н/о +14.4 +5.0 53 +12 +12 1022.3 989.8
00 26.03 ЮВ 6 н/о н/о +15.7 +5.6 51 +14 +14 1022.5 990.0
01 26.03 ЮВ 7 н/о н/о +15.9 +4.6 47 +15 +15 1022.1 989.6 +10.7
02 26.03 Ю 7 н/о н/о +16.9 +4.9 45 +16 +16 1021.7 989.2
03 26.03 Ю 5 н/о н/о +18.0 +4.6 41 +18 +18 1021.0 988.5
04 26.03 Ю 5 н/о н/о +19.6 +3.7 35 +20 +20 1020.4 987.9
05 26.03 ЮВ 6 н/о н/о +20.1 +2.5 31 +20 +20 1019.8 987.4

 

Местоположение метеостанции Брокен-Хилл (Новый Южный Уэльс, Австралия): широта -32.00 долгота 141.46 высота над уровнем моря 282 м.

В архиве по умолчанию представлена погода в Брокен-Хилле за последнюю неделю. Архивные данные за месяц целиком и за предыдущие месяцы, начиная с января 2011 года, Вы можете получить, выбрав интересующий диапазон дат из раскрывающегося списка и нажав кнопку "Ввод!".


*Определитесь, кто Вы:
робот инопланетянин человек

Внимание! Время в таблицах - всемирное. Для получения местного времени необходимо прибавить поправку, которая равна 10 ч.

Смотрите также архив погоды в соседних городах и на ближайших метеорологических станциях:

Погода в Фоулерс Гэп (Новый Южный Уэльс, Австралия) (105 км)
Погода в Юнте (Южная Австралия, Австралия) (189 км)
Погода в Уилкании (Новый Южный Уэльс, Австралия) (189 км)
Погода в Уафт Клифс (Новый Южный Уэльс, Австралия) (199 км)
Погода в Милдьюре (Новый Южный Уэльс, Австралия) (255 км)
Погода в Ренмарке (Южная Австралия, Австралия) (255 км)
Погода в Локстоне (Южная Австралия, Австралия) (282 км)
Погода в Айванхо (Новый Южный Уэльс, Австралия) (286 км)
Погода в Тибообере (Новый Южный Уэльс, Австралия) (289 км)
Погода в Ли-Крике (Южная Австралия, Австралия) (328 км)

Пояснения к столбцам:

Ветер - указаны скорость ветра в м/с - средняя за 10 мин, порывы в срок и между сроками (в фигурных скобках) и направление, откуда дует ветер: С - северный, СВ - северо-восточный, В - восточный, ЮВ - юго-восточный, Ю - южный, ЮЗ - юго-западный, З - западный, СЗ - северо-западный.
Видимость - горизонтальная дальность видимости в метрах или километрах. При видимости от 1 до 10 км при отсутствии осадков обычно наблюдается дымка, при ухудшении видимости до 1 км и менее - туман. В сухую погоду видимость может ухудшаться дымом, пылью или мглою.
Явления - указаны атмосферные явления, наблюдавшиеся в срок или в последний час перед сроком; фигурными скобками обозначены явления, наблюдавшиеся между сроками (за 1-3 часа до срока); квадратными скобками обозначены град или гололедные отложения с указанием их диаметра в мм.
Облачность - указаны через наклонную черту общая и нижняя облачность в баллах и высота нижней границы облаков в метрах; квадратными скобками обозначены формы облаков: Ci - перистые, Cs - перисто-слоистые, Cc - перисто-кучевые, Ac - высококучевые, As - высокослоистые, Sc - слоисто-кучевые, Ns - слоисто-дождевые, Cu - кучевые, Cb - кучево-дождевые. Подробнее классификацию облаков см. в Атласе облаков (PDF).
T - Температура воздуха - температура, измеренная на высоте 2 м над землей.
Td - Температура точки росы - температура, при понижении до которой содержащийся в воздухе водяной пар достигнет насыщения.
f - Относительная влажность воздуха - влажноcть воздуха, измеренная на высоте 2 м над землей.
Te - Эффективная температура - температура, которую ощущает одетый по сезону человек в тени. Характеристика душности погоды. При расчете учитывается влияние влажности воздуха и скорости ветра на теплоощущения человека.
Tes - Эффективная температура на солнце - температура, которую ощущает человек, с поправкой на солнечный нагрев. Характеристика знойности погоды. Зависит от высоты солнца над горизонтом, облачности и скорости ветра. Ночью, в пасмурную погоду, а также при ветре 12 м/с и более поправка равна нулю.
P - Атмосферное давление - приведенное к уровню моря атмосферное давление.
Po - Атмосферное давление - измеренное на уровне метеостанции атмосферное давление.
Tmin - Минимальная температура - минимум температуры воздуха на высоте 2 м над землей.
Tmax - Максимальная температура - максимум температуры воздуха на высоте 2 м над землей.
R - Количество осадков - Количество выпавших осадков за период времени, мм. При наведении курсора мыши на число - период времени, за который выпало указанное количество осадков.
R24 - Количество осадков - Количество выпавших осадков за 24 часа, мм.
S - Снежный покров - Высота снежного покрова, см. При наведении курсора мыши на число - состояние снежного покрова и степень покрытия местности в баллах.